Location: Eitze
(52.9840°N, 9.6894°E)
Time: 21:50:20
(UTC+00:00)

Cosmos 2360 Rocket - Pass Details

Date: 19 May 2025
Orbit: 834 x 842 km, 71.0° (Epoch: 15 June)

Event Time Altitude Azimuth Distance (km) Brightness Sun altitude
Rises 23:08:29 0° 327° (NNW) 3,395 6.4 -17.0°
Reaches altitude 10° 23:10:57 10° 325° (NW) 2,457 5.5 -17.0°
Maximum altitude 23:16:32 71° 244° (WSW) 886 2.2 -17.0°
Enters shadow 23:19:38 27° 166° (SSE) 1,544 3.0 -17.0°
